Flag for U.S.A. Weather past 2 weeks in Evansville, Indiana, U.S.A.

Now
66 °F

Clear.


Feels Like: 66 °F
Forecast: 45 / 62 °F
Wind: 5 mph from Northwest

Location: Evansville Regional Airport

Current Time: Oct 20, 2014 at 7:45:26 PM

Latest Report: Oct 20, 2014 at 6:54 PM


Visibility: 10 mi

Pressure: 29.93 "Hg

Humidity: 61%

Dew point: 52 °F

Location of EvansvilleLocation

Historic Weather in Evansville — Graph

°F

Evansville temperature yesterday

Maximum temperature yesterday: 60 °F (at 3:54 PM)
Minimum temperature yesterday: 41 °F (at 6:54 AM)
Average temperature yesterday: 51 °F

Past Weeks' High & Low Weather Summary

 TemperatureHumidityPressure
High77 °F (Oct 7, 4:54 PM)97% (Oct 10, 3:54 AM)30.28 "Hg (Oct 10, 3:54 AM)
Low41 °F (Oct 19, 6:54 AM)28% (Oct 8, 1:54 PM)29.55 "Hg (Oct 14, 5:54 AM)
Average59 °F77%29.92 "Hg
* Reported Oct 5 5:54 PM — Oct 20 5:54 PM, Evansville, Weather by CustomWeather, © 2014

Note: Actual official high and low records may vary slightly from our data, if they occured in-between our weather recording intervals... More about our weather records

Advertising

Evansville weather history for previous 24 hours

 ConditionsComfort  
Time TempWeatherWind HumidityBarometerVisibility
5:54 PM
Oct 20
69 °FPartly sunny.5 mph57%29.90 "Hg10 mi
4:54 PM71 °FPartly sunny.9 mph53%29.88 "Hg10 mi
3:54 PM72 °FSunny.14 mph52%29.88 "Hg10 mi
2:54 PM71 °FSunny.15 mph53%29.90 "Hg10 mi
1:54 PM70 °FSunny.15 mph55%29.90 "Hg10 mi
12:54 PM67 °FSunny.15 mph59%29.93 "Hg10 mi
11:54 AM64 °FScattered clouds.13 mph63%29.97 "Hg10 mi
10:54 AM60 °FOvercast.12 mph67%29.99 "Hg10 mi
9:54 AM57 °FPartly sunny.9 mph72%30.01 "Hg10 mi
8:54 AM55 °FPartly sunny.8 mph77%30.02 "Hg10 mi
7:54 AM52 °FPartly sunny.8 mph83%30.02 "Hg10 mi
6:54 AM51 °FPassing clouds.7 mph86%30.02 "Hg10 mi
5:54 AM50 °FLight rain. Overcast.6 mph93%30.02 "Hg10 mi
4:54 AM51 °FLight rain. Overcast.5 mph86%30.02 "Hg9 mi
3:54 AM49 °FOvercast.5 mph86%30.03 "Hg10 mi
2:54 AM47 °FOvercast.No wind90%30.05 "Hg10 mi
1:54 AM46 °FPassing clouds.No wind89%30.06 "Hg7 mi
12:54 AM46 °FClear.No wind93%30.07 "Hg7 mi
11:54 PM
Oct 19
47 °FClear.No wind90%30.07 "Hg8 mi
9:54 PM49 °FClear.No wind86%30.09 "Hg10 mi
8:54 PM50 °FClear.No wind80%30.10 "Hg10 mi
7:54 PM53 °FClear.3 mph74%30.11 "Hg10 mi
Weather by CustomWeather, © 2014

See weather overviewHow to use our weather pages